THOR ABLESTAR DEB, 48810

Orbit data source: Space-Track

THOR ABLESTAR DEB, 48810 is space debris in LEO originally from a launch on Thu, 29 Jun 1961 UTC launched from the Air Force Eastern Test Range (AFETR). Debris objects in space refer to the collection of defunct objects orbiting the Earth. Examples of debris include non-operational satellites, rocket bodies, and fragments generated from explosions, collisions, or faulty payload assembly.

Loading next visibility...
Identifier
48810, 1961-015MN
Orbit
LEO
Country
Flag of USUS
Related business
Manufacturer
Unknown
Mission
Spacecraft
Bus & Motor
Unknown
Mass
Unknown
Launch date (UTC)
1961-06-29 (64 years ago)
Launch vehicle
Unknown
Launch site
Air Force Eastern Test Range (AFETR)
Object type
Payload
Rocket body
Debris
Shape & HBR
Unknown shape, 0.1 m
Radar Cross Section
Small (<0.1 m²)

Expand to show TLE details & history
Last TLE update: 2 days ago

TLE from 2 days ago
0 THOR ABLESTAR DEB
1 48810U 61015MN  25296.54514162  .00000059  00000-0  10301-3 0  9998
2 48810  66.8526 133.8502 0138872 277.9570 111.2064 13.89309343604484
Epoch: 2025-10-23T13:05Z
TLE epoch observation values (Epoch: 2025-10-23T13:05:00.235Z)
Latitude
27.99841°
Longitude
-81.53505°
Altitude
971.6 km
Speed
7.35 km/s
True Right ascension
09h 47m 40s
True Declination
27° 51' 37"
Sunlit
Object was in daylight at epoch
Visualization orbit readout
Latitude
Unknown
Longitude
Unknown
Altitude
Unknown
Speed
Unknown
Apparent Right ascension
Unknown
Apparent Declination
Unknown
Sunlit
N/A
Visualization observer readout
Local Sidereal Time
21:35:34
Azimuth
Unknown
Elevation
Unknown
Doppler factor
Unknown
Orbital elements
Apogee altitude
1,030.922 km
Perigee altitude
827.959 km
Semi-major axis
7,307.577 km
Eccentricity
0.01389
Inclination
66.8526°
RAAN
133.8502°
Arg. of periapsis
277.957°
True anomaly
112.68057°
Mean anomaly
111.2064°
Eccentric anomaly
111.94443°
Mean motion
3.47443 °/min
Orbital period
103.61 mins
BSTAR
0.00010301
Loading maneuver chart data...
Computing Atmospheric mass density...

Documentation

Showing up to 5 results
|